FW6081 Weather Reports


time (UTC)temp
F
wind
direction
speed
knots
gust
knots
rain 1hr
in
rain 24hr
in
rain mn
in
humidity
%
barometer
mb
20211017155558 67 148 0.0 4.3 0.00 0.00 0.00 42 1028.0
20211017155043 67 147 0.0 4.3 0.00 0.00 0.00 39 1028.0
20211017154605 67 121 0.0 2.6 0.00 0.00 0.00 40 1028.1
20211017154042 67 219 0.0 2.6 0.00 0.00 0.00 42 1028.2
20211017153559 67 157 0.9 2.6 0.00 0.00 0.00 41 1028.2
20211017153050 67 137 0.0 2.6 0.00 0.00 0.00 42 1028.1
20211017152540 66 130 0.9 3.5 0.00 0.00 0.00 43 1028.2
20211017152040 66 153 0.9 3.5 0.00 0.00 0.00 44 1028.3
20211017151714 65 179 0.0 5.2 0.00 0.00 0.00 45 1028.3
20211017151050 64 248 0.9 5.2 0.00 0.00 0.00 45 1028.2
20211017150555 63 148 0.0 3.5 0.00 0.00 0.00 49 1028.2
20211017150148 62 144 0.9 3.5 0.00 0.00 0.00 49 1028.2
20211017145532 60 160 0.9 3.5 0.00 0.00 0.00 52 1028.1
20211017145056 58 275 0.0 1.7 0.00 0.00 0.00 62 1028.2
20211017144552 57 278 0.0 0.9 0.00 0.00 0.00 66 1028.0
20211017144035 55 278 0.0 0.9 0.00 0.00 0.00 68 1028.0
20211017143532 53 278 0.0 0.9 0.00 0.00 0.00 69 1027.9
20211017143026 51 278 0.0 1.7 0.00 0.00 0.00 72 1028.0
20211017142522 50 278 0.0 1.7 0.00 0.00 0.00 78 1027.9
20211017142021 49 285 0.0 0.9 0.00 0.00 0.00 90 1027.9
20211017141540 48 285 0.0 0.9 0.00 0.00 0.00 91 1027.9
20211017141019 47 285 0.0 0.0 0.00 0.00 0.00 90 1027.8
20211017140517 47 285 0.0 0.0 0.00 0.00 0.00 89 1027.7
20211017140037 46 285 0.0 0.0 0.00 0.00 0.00 87 1027.7
20211017135523 46 285 0.0 0.0 0.00 0.00 0.00 87 1027.6
20211017135016 45 285 0.0 0.0 0.00 0.00 0.00 86 1027.5
20211017134538 45 285 0.0 0.0 0.00 0.00 0.00 86 1027.6
20211017134014 45 285 0.0 0.0 0.00 0.00 0.00 85 1027.5
20211017133513 45 285 0.0 0.0 0.00 0.00 0.00 85 1027.5
20211017133029 44 285 0.0 0.0 0.00 0.00 0.00 85 1027.5
20211017132512 44 285 0.0 0.0 0.00 0.00 0.00 85 1027.4
20211017132036 44 285 0.0 0.0 0.00 0.00 0.00 82 1027.4
20211017131509 44 285 0.0 0.0 0.00 0.00 0.00 81 1027.3
20211017131012 44 285 0.0 0.0 0.00 0.00 0.00 81 1027.3
20211017130508 44 285 0.0 0.0 0.00 0.00 0.00 81 1027.3
20211017130011 43 285 0.0 0.0 0.00 0.00 0.00 81 1027.3
20211017125507 43 285 0.0 0.0 0.00 0.00 0.00 80 1027.2
20211017125006 43 285 0.0 0.0 0.00 0.00 0.00 80 1027.1
20211017124507 43 285 0.0 0.0 0.00 0.00 0.00 79 1027.2
20211017124005 43 285 0.0 0.0 0.00 0.00 0.00 79 1027.1
20211017123518 43 285 0.0 0.0 0.00 0.00 0.00 79 1027.1
20211017123030 43 285 0.0 0.0 0.00 0.00 0.00 79 1027.2
20211017122505 43 285 0.0 0.0 0.00 0.00 0.00 79 1027.1
20211017122004 44 285 0.0 0.0 0.00 0.00 0.00 79 1027.1
20211017121503 44 285 0.0 0.0 0.00 0.00 0.00 79 1027.1
20211017121003 44 285 0.0 0.0 0.00 0.00 0.00 79 1027.2
20211017120506 44 285 0.0 0.0 0.00 0.00 0.00 79 1027.2
20211017120003 44 285 0.0 0.0 0.00 0.00 0.00 79 1027.1
20211017115502 44 285 0.0 0.0 0.00 0.00 0.00 78 1027.2
20211017115004 44 285 0.0 0.0 0.00 0.00 0.00 78 1027.1
20211017114502 44 285 0.0 0.0 0.00 0.00 0.00 78 1027.1
20211017114001 44 285 0.0 0.0 0.00 0.00 0.00 78 1027.1
20211017113500 44 285 0.0 0.0 0.00 0.00 0.00 78 1027.2
20211017112600 44 285 0.0 0.0 0.00 0.00 0.00 77 1027.1
20211017112058 44 285 0.0 0.0 0.00 0.00 0.00 77 1027.0
20211017111615 44 285 0.0 0.0 0.00 0.00 0.00 77 1027.0
20211017111058 44 285 0.0 0.0 0.00 0.00 0.00 77 1026.8
20211017110558 44 285 0.0 0.0 0.00 0.00 0.00 77 1026.7
20211017110206 44 285 0.0 0.0 0.00 0.00 0.00 77 1026.7
20211017105607 45 285 0.0 0.0 0.00 0.00 0.00 77 1026.7
20211017105106 45 285 0.0 0.0 0.00 0.00 0.00 78 1026.7
20211017104619 45 285 0.0 0.0 0.00 0.00 0.00 78 1026.7
20211017104056 45 285 0.0 0.0 0.00 0.00 0.00 78 1026.6
20211017103616 45 285 0.0 0.0 0.00 0.00 0.00 78 1026.7
20211017103130 45 285 0.0 0.0 0.00 0.00 0.00 77 1026.8
20211017102557 45 285 0.0 0.0 0.00 0.00 0.00 77 1026.9
20211017102054 45 285 0.0 0.0 0.00 0.00 0.00 78 1026.8
20211017101623 45 285 0.0 0.0 0.00 0.00 0.00 77 1027.0
20211017101053 45 285 0.0 0.0 0.00 0.00 0.00 77 1026.9
20211017100553 45 285 0.0 0.0 0.00 0.00 0.00 77 1026.9
20211017100348 45 285 0.0 0.0 0.00 0.00 0.00 77 1026.9
20211017095551 45 285 0.0 0.0 0.00 0.00 0.00 77 1026.8
20211017095051 45 285 0.0 0.0 0.00 0.00 0.00 77 1026.8
20211017094628 45 285 0.0 0.0 0.00 0.00 0.00 77 1026.8
20211017094101 45 285 0.0 0.0 0.00 0.00 0.00 77 1026.9
20211017093551 45 285 0.0 0.0 0.00 0.00 0.00 77 1026.9
20211017093056 45 285 0.0 0.0 0.00 0.00 0.00 77 1026.9
20211017092549 45 285 0.0 0.0 0.00 0.00 0.00 77 1027.0
20211017092049 46 285 0.0 0.0 0.00 0.00 0.00 77 1027.0
20211017091704 46 285 0.0 0.0 0.00 0.00 0.00 77 1027.1
20211017091049 46 285 0.0 0.0 0.00 0.00 0.00 77 1027.0
20211017090604 46 285 0.0 0.0 0.00 0.00 0.00 76 1027.0
20211017090122 46 285 0.0 0.0 0.00 0.00 0.00 76 1027.0
20211017085547 46 285 0.0 0.0 0.00 0.00 0.00 76 1027.0
20211017085052 46 285 0.0 0.0 0.00 0.00 0.00 76 1026.9
20211017084714 46 285 0.0 0.0 0.00 0.00 0.00 76 1026.9
20211017084046 46 285 0.0 0.0 0.00 0.00 0.00 76 1026.8
20211017083545 46 285 0.0 0.0 0.00 0.00 0.00 76 1026.9
20211017083058 46 285 0.0 0.0 0.00 0.00 0.00 76 1026.9
20211017082604 46 285 0.0 0.0 0.00 0.00 0.00 76 1027.0
20211017082053 46 285 0.0 0.0 0.00 0.00 0.00 76 1027.0
20211017081622 46 285 0.0 0.0 0.00 0.00 0.00 76 1026.9
20211017081127 46 285 0.0 0.0 0.00 0.00 0.00 76 1027.0
20211017080544 47 285 0.0 0.0 0.00 0.00 0.00 76 1027.0
20211017080103 47 285 0.0 0.0 0.00 0.00 0.00 76 1027.1
20211017075541 47 285 0.0 0.0 0.00 0.00 0.00 76 1027.1
20211017075050 47 285 0.0 0.0 0.00 0.00 0.00 76 1027.0
20211017074613 47 285 0.0 0.0 0.00 0.00 0.00 76 1027.0
20211017074108 47 285 0.0 0.0 0.00 0.00 0.00 76 1026.9
20211017073539 47 285 0.0 0.0 0.00 0.00 0.00 76 1026.9
20211017073104 47 285 0.0 0.0 0.00 0.00 0.00 75 1027.0
20211017072538 47 285 0.0 0.0 0.00 0.00 0.00 75 1026.9
20211017072037 47 285 0.0 0.0 0.00 0.00 0.00 75 1026.9
20211017071547 47 285 0.0 0.0 0.00 0.00 0.00 75 1026.9
20211017071106 47 285 0.0 0.0 0.00 0.00 0.00 75 1027.0
20211017070536 47 285 0.0 0.0 0.00 0.00 0.00 75 1026.9
20211017070108 47 285 0.0 0.0 0.00 0.00 0.00 75 1026.9
20211017065534 47 285 0.0 0.0 0.00 0.00 0.00 75 1026.9
20211017065035 47 285 0.0 0.0 0.00 0.00 0.00 75 1026.9
20211017064556 47 285 0.0 0.0 0.00 0.00 0.00 75 1026.9
20211017064036 47 285 0.0 0.0 0.00 0.00 0.00 75 1026.8
20211017063536 47 285 0.0 0.0 0.00 0.00 0.00 74 1026.8
20211017063036 48 285 0.0 0.0 0.00 0.00 0.00 74 1026.7
20211017062532 48 285 0.0 0.0 0.00 0.00 0.00 74 1026.8
20211017062048 48 285 0.0 0.0 0.00 0.00 0.00 73 1026.7
20211017061548 48 285 0.0 0.0 0.00 0.00 0.00 73 1026.7
20211017061034 48 285 0.0 0.0 0.00 0.00 0.00 73 1026.7
20211017060540 48 285 0.0 0.0 0.00 0.00 0.00 73 1026.7
20211017060041 48 285 0.0 0.0 0.00 0.00 0.00 73 1026.7
20211017055540 48 285 0.0 0.0 0.00 0.00 0.00 73 1026.7
20211017055033 48 285 0.0 0.0 0.00 0.00 0.00 72 1026.7
20211017054552 48 285 0.0 0.0 0.00 0.00 0.00 72 1026.7
20211017054028 48 285 0.0 0.0 0.00 0.00 0.00 72 1026.7
20211017053536 48 285 0.0 0.0 0.00 0.00 0.00 72 1026.7
20211017053103 48 285 0.0 0.0 0.00 0.00 0.00 72 1026.7
20211017052531 49 285 0.0 0.0 0.00 0.00 0.00 71 1026.8
20211017052025 49 285 0.0 0.0 0.00 0.00 0.00 71 1026.7
20211017051555 49 285 0.0 0.0 0.00 0.00 0.00 71 1026.8
20211017051036 49 285 0.0 0.0 0.00 0.00 0.00 71 1026.8
20211017050526 49 285 0.0 0.0 0.00 0.00 0.00 70 1026.8
20211017050041 49 285 0.0 0.0 0.00 0.00 0.00 71 1026.8
20211017045530 49 285 0.0 0.0 0.00 0.00 0.00 71 1026.8
20211017045023 49 285 0.0 0.0 0.00 0.00 0.00 71 1026.9
20211017044551 49 285 0.0 0.0 0.00 0.00 0.00 71 1026.9
20211017044024 49 285 0.0 0.0 0.00 0.00 0.00 70 1026.9
20211017043521 49 285 0.0 0.0 0.00 0.00 0.00 70 1026.9
20211017043024 50 285 0.0 0.0 0.00 0.00 0.00 70 1026.9
20211017042538 50 285 0.0 0.0 0.00 0.00 0.00 70 1027.0
20211017042030 50 285 0.0 0.0 0.00 0.00 0.00 71 1027.1
20211017041541 50 285 0.0 0.0 0.00 0.00 0.00 71 1027.1
20211017041027 50 285 0.0 0.0 0.00 0.00 0.00 70 1027.1
20211017040521 50 285 0.0 0.0 0.00 0.00 0.00 70 1027.2
20211017040026 50 285 0.0 0.0 0.00 0.00 0.00 69 1027.1
20211017035528 50 285 0.0 0.0 0.00 0.00 0.00 70 1027.1
20211017035020 51 285 0.0 0.0 0.00 0.00 0.00 68 1027.1
20211017034521 51 285 0.0 0.0 0.00 0.00 0.00 68 1027.1
20211017034020 51 285 0.0 0.0 0.00 0.00 0.00 68 1027.1
20211017033519 51 285 0.0 0.0 0.00 0.00 0.00 67 1027.0
20211017033044 51 285 0.0 0.0 0.00 0.00 0.00 68 1027.1
20211017032525 51 285 0.0 0.0 0.00 0.00 0.00 68 1027.0
20211017032041 52 285 0.0 0.0 0.00 0.00 0.00 68 1027.0
20211017031532 52 285 0.0 0.0 0.00 0.00 0.00 67 1026.9
20211017031019 52 285 0.0 0.0 0.00 0.00 0.00 67 1027.0
20211017030525 52 285 0.0 0.0 0.00 0.00 0.00 67 1026.9
20211017030032 52 285 0.0 0.0 0.00 0.00 0.00 67 1026.9
20211017025518 53 285 0.0 0.0 0.00 0.00 0.00 66 1026.9
20211017025018 53 285 0.0 0.0 0.00 0.00 0.00 66 1026.9
20211017024525 53 285 0.0 0.0 0.00 0.00 0.00 66 1026.9
20211017024018 53 285 0.0 0.0 0.00 0.00 0.00 66 1027.0
20211017023518 53 285 0.0 0.0 0.00 0.00 0.00 65 1026.9
20211017023034 53 285 0.0 0.0 0.00 0.00 0.00 65 1026.8
20211017022517 53 285 0.0 0.0 0.00 0.00 0.00 65 1026.8
20211017022017 53 285 0.0 0.0 0.00 0.00 0.00 65 1026.7
20211017021542 53 285 0.0 0.0 0.00 0.00 0.00 63 1026.7
20211017021016 54 285 0.0 0.0 0.00 0.00 0.00 61 1026.7
20211017020528 54 285 0.0 0.0 0.00 0.00 0.00 61 1026.6
20211017020031 54 285 0.0 0.0 0.00 0.00 0.00 61 1026.6
20211017015519 54 285 0.0 0.0 0.00 0.00 0.00 61 1026.6
20211017015020 55 285 0.0 0.0 0.00 0.00 0.00 60 1026.5
20211017014522 55 285 0.0 0.0 0.00 0.00 0.00 59 1026.5
20211017014016 55 285 0.0 0.0 0.00 0.00 0.00 59 1026.5
20211017013518 56 285 0.0 0.0 0.00 0.00 0.00 58 1026.4
20211017013029 56 285 0.0 0.0 0.00 0.00 0.00 57 1026.4
20211017012515 56 285 0.0 0.0 0.00 0.00 0.00 57 1026.3
20211017012018 56 285 0.0 0.0 0.00 0.00 0.00 57 1026.2
20211017011540 57 285 0.0 0.0 0.00 0.00 0.00 57 1026.3
20211017011015 57 285 0.0 0.0 0.00 0.00 0.00 57 1026.2
20211017010514 58 285 0.0 0.0 0.00 0.00 0.00 57 1026.1
20211017010040 58 285 0.0 0.0 0.00 0.00 0.00 56 1026.1
20211017005514 58 285 0.0 0.0 0.00 0.00 0.00 54 1026.2
20211017005014 59 285 0.0 0.0 0.00 0.00 0.00 53 1026.1
20211017004520 59 285 0.0 0.0 0.00 0.00 0.00 52 1026.1
20211017004035 60 285 0.0 0.0 0.00 0.00 0.00 51 1026.1
20211017003512 60 285 0.0 0.0 0.00 0.00 0.00 51 1026.0
20211017003043 61 285 0.0 0.0 0.00 0.00 0.00 48 1026.0
20211017002513 61 285 0.0 0.0 0.00 0.00 0.00 48 1025.9
20211017002012 62 285 0.0 0.0 0.00 0.00 0.00 46 1025.9
20211017001515 62 285 0.0 0.0 0.00 0.00 0.00 44 1025.8
20211017001011 63 285 0.0 0.0 0.00 0.00 0.00 43 1025.8
20211017000511 64 285 0.0 0.0 0.00 0.00 0.00 42 1025.8
20211017000013 64 285 0.0 0.0 0.00 0.00 0.00 41 1025.8
20211016235510 65 285 0.0 0.0 0.00 0.00 0.00 41 1025.9
20211016235017 65 285 0.0 0.0 0.00 0.00 0.00 39 1026.0
20211016234512 66 285 0.0 0.0 0.00 0.00 0.00 38 1026.0
20211016234016 66 285 0.0 2.6 0.00 0.00 0.00 37 1026.2
20211016233019 67 336 0.0 2.6 0.00 0.00 0.00 35 1026.1
20211016232510 67 82 0.0 2.6 0.00 0.00 0.00 34 1026.1
20211016232009 67 320 0.0 2.6 0.00 0.00 0.00 33 1025.9
20211016231510 68 320 0.0 3.5 0.00 0.00 0.00 33 1025.9
20211016231023 68 327 0.0 2.6 0.00 0.00 0.00 33 1026.0
20211016230514 68 333 0.0 3.5 0.00 0.00 0.00 33 1025.9
20211016230010 68 304 0.0 3.5 0.00 0.00 0.00 32 1026.0
20211016225510 68 298 0.9 4.3 0.00 0.00 0.00 32 1026.0
20211016225008 69 307 0.9 3.5 0.00 0.00 0.00 32 1026.0
20211016224509 69 355 0.0 2.6 0.00 0.00 0.00 30 1026.0
20211016224009 69 319 0.0 3.5 0.00 0.00 0.00 31 1026.0
20211016223507 69 332 0.9 7.0 0.00 0.00 0.00 30 1026.0
20211016223010 69 307 2.6 7.0 0.00 0.00 0.00 30 1026.1
20211016222508 69 265 0.9 5.2 0.00 0.00 0.00 31 1026.0
20211016222007 69 300 0.0 2.6 0.00 0.00 0.00 30 1026.0
20211016221509 69 36 0.9 4.3 0.00 0.00 0.00 30 1026.0
20211016221008 70 288 0.9 6.1 0.00 0.00 0.00 30 1026.0
20211016220511 70 327 0.9 6.1 0.00 0.00 0.00 31 1026.0
20211016220011 70 48 0.9 4.3 0.00 0.00 0.00 30 1026.0
20211016215510 70 331 0.0 5.2 0.00 0.00 0.00 30 1026.3
20211016215007 70 346 1.7 5.2 0.00 0.00 0.00 30 1026.3
20211016214519 70 308 0.9 5.2 0.00 0.00 0.00 30 1026.1
20211016214010 70 44 0.0 5.2 0.00 0.00 0.00 30 1026.3
20211016213506 70 318 1.7 5.2 0.00 0.00 0.00 29 1026.4
20211016213010 70 50 0.0 5.2 0.00 0.00 0.00 30 1026.4
20211016212508 70 311 1.7 5.2 0.00 0.00 0.00 28 1026.4
20211016212003 70 261 0.9 7.0 0.00 0.00 0.00 29 1026.5
20211016211506 70 301 1.7 7.0 0.00 0.00 0.00 28 1026.6
20211016211003 70 276 1.7 7.0 0.00 0.00 0.00 28 1026.6
20211016210503 71 31 0.9 7.0 0.00 0.00 0.00 29 1026.6
20211016210002 70 298 1.7 6.1 0.00 0.00 0.00 28 1026.6
20211016205501 71 292 1.7 7.0 0.00 0.00 0.00 28 1026.7
20211016205001 71 315 1.7 7.0 0.00 0.00 0.00 27 1026.7
20211016204501 71 302 1.7 6.1 0.00 0.00 0.00 28 1026.7
20211016204117 71 40 0.9 5.2 0.00 0.00 0.00 27 1026.8
20211016203602 72 292 2.6 7.0 0.00 0.00 0.00 28 1026.9
20211016203144 71 316 2.6 7.0 0.00 0.00 0.00 27 1027.0
20211016202559 71 328 1.7 7.8 0.00 0.00 0.00 28 1026.9
20211016202104 71 304 1.7 7.8 0.00 0.00 0.00 28 1027.0
20211016201640 71 68 0.9 6.1 0.00 0.00 0.00 29 1027.1
20211016201106 71 281 1.7 8.7 0.00 0.00 0.00 29 1027.0
20211016200557 71 239 2.6 8.7 0.00 0.00 0.00 28 1027.0
20211016200131 71 40 0.9 6.1 0.00 0.00 0.00 32 1027.1
20211016195559 71 15 0.9 4.3 0.00 0.00 0.00 30 1027.1
20211016195056 71 316 1.7 7.8 0.00 0.00 0.00 30 1027.1
20211016194620 71 315 3.5 7.8 0.00 0.00 0.00 30 1027.3
20211016194056 71 306 1.7 6.1 0.00 0.00 0.00 30 1027.2
20211016193603 71 305 1.7 6.1 0.00 0.00 0.00 30 1027.3
20211016193108 71 36 1.7 6.1 0.00 0.00 0.00 31 1027.3
20211016192606 71 343 0.9 4.3 0.00 0.00 0.00 31 1027.4
20211016192054 71 306 1.7 7.0 0.00 0.00 0.00 32 1027.6
20211016191635 70 37 2.6 7.0 0.00 0.00 0.00 31 1027.7
20211016191103 70 5 0.9 7.0 0.00 0.00 0.00 32 1027.7
20211016190552 70 288 2.6 7.0 0.00 0.00 0.00 30 1027.7
20211016190243 70 266 1.7 7.0 0.00 0.00 0.00 32 1027.8
20211016185553 70 303 1.7 7.0 0.00 0.00 0.00 31 1027.9
20211016185057 70 40 1.7 5.2 0.00 0.00 0.00 33 1028.1
20211016184651 70 331 2.6 5.2 0.00 0.00 0.00 33 1028.2
20211016184051 70 317 0.9 4.3 0.00 0.00 0.00 33 1028.3
20211016183553 70 25 0.9 7.0 0.00 0.00 0.00 32 1028.4
20211016183132 70 348 0.9 7.0 0.00 0.00 0.00 32 1028.4
20211016182550 69 288 1.7 7.8 0.00 0.00 0.00 31 1028.5
20211016182052 69 304 1.7 9.6 0.00 0.00 0.00 32 1028.7
20211016181719 69 341 0.9 5.2 0.00 0.00 0.00 34 1028.6
20211016181114 69 53 1.7 4.3 0.00 0.00 0.00 32 1028.7
20211016180547 69 5 0.9 5.2 0.00 0.00 0.00 32 1028.8
20211016180149 69 303 1.7 5.2 0.00 0.00 0.00 33 1028.9
20211016175546 69 27 0.9 7.8 0.00 0.00 0.00 32 1028.9
20211016175046 69 355 3.5 7.8 0.00 0.00 0.00 32 1028.9
20211016174604 69 331 1.7 7.0 0.00 0.00 0.00 32 1029.2
20211016174059 69 41 0.9 5.2 0.00 0.00 0.00 33 1029.1
20211016173543 68 24 1.7 5.2 0.00 0.00 0.00 33 1029.2
20211016173125 68 321 1.7 5.2 0.00 0.00 0.00 33 1029.3
20211016172541 68 42 1.7 5.2 0.00 0.00 0.00 35 1029.3
20211016172052 68 22 1.7 5.2 0.00 0.00 0.00 35 1029.3
20211016171609 68 290 0.9 9.6 0.00 0.00 0.00 38 1029.3
20211016171045 67 302 2.6 9.6 0.00 0.00 0.00 36 1029.4
20211016170536 67 5 1.7 5.2 0.00 0.00 0.00 36 1029.5
20211016170038 67 24 1.7 5.2 0.00 0.00 0.00 36 1029.4
20211016165535 67 309 0.9 7.0 0.00 0.00 0.00 37 1029.4
20211016165033 66 323 0.9 4.3 0.00 0.00 0.00 39 1029.5
20211016164603 66 258 1.7 4.3 0.00 0.00 0.00 38 1029.4
20211016164047 65 25 0.9 5.2 0.00 0.00 0.00 38 1029.4
20211016163529 65 26 1.7 5.2 0.00 0.00 0.00 41 1029.4
20211016163040 65 43 1.7 5.2 0.00 0.00 0.00 40 1029.4
20211016162526 64 324 0.9 4.3 0.00 0.00 0.00 43 1029.4
20211016162026 64 15 1.7 7.0 0.00 0.00 0.00 44 1029.4
20211016161535 64 17 1.7 7.0 0.00 0.00 0.00 42 1029.4
20211016161023 64 306 0.9 6.1 0.00 0.00 0.00 44 1029.3
20211016160522 63 326 1.7 6.1 0.00 0.00 0.00 46 1029.4
20211016160040 63 343 0.9 7.0 0.00 0.00 0.00 47 1029.4